Skip Page Navigation
NASA JPL Caltech
NASA Logo - Jet Propulsion Laboratory + View the NASA Portal
+ Center for Near-Earth Object Studies
JPL Home Earth Solar System Stars & Galaxies Technology
JPL Solar System Dynamics
BODIES ORBITS EPHEMERIDES TOOLS PHYSICAL DATA DISCOVERY FAQ SITE MAP
JPL Small-Body Database Browser
Search: [ help ]  
78886 (2003 SC12)
Classification: Main-belt Asteroid          SPK-ID: 2078886
Ephemeris | Orbit Diagram | Orbital Elements | Mission Design | Physical Parameters | Discovery Circumstances | Close-Approach Data ]

[ show orbit diagram ]
Orbital Elements at Epoch 2459000.5 (2020-May-31.0) TDB
Reference: JPL 20 (heliocentric ecliptic J2000)
 Element Value Uncertainty (1-sigma)   Units 
e .1079020525747445 4.6496e-08  
a 3.022601345804428 2.241e-08 au
q 2.696456456476945 1.359e-07 au
i 2.612242630555854 4.4351e-06 deg
node 149.27774278152 0.00010265 deg
peri 199.4513779351267 0.00010468 deg
M 66.42401433360098 2.0078e-05 deg
tp 2458646.345836502553
(2019-Jun-11.84583650)
0.00010688 TDB
period 1919.418754469744
5.26
2.1346e-05
5.844e-08
d
yr
n .1875567794477725 2.0858e-09 deg/d
Q 3.348746235131911 2.4828e-08 au
  Orbit Determination Parameters
   # obs. used (total)      531  
   data-arc span      8070 days (22.09 yr)  
   first obs. used      1998-09-25  
   last obs. used      2020-10-29  
   planetary ephem.      DE431  
   SB-pert. ephem.      SB431-N16  
   condition code      0  
   norm. resid. RMS      .54814  
   source      ORB  
   producer      Otto Matic  
   solution date      2020-Nov-12 21:25:09  

Additional Information
 Earth MOID = 1.69006 au 
 Jupiter MOID = 2.05248 au 
 T_jup = 3.235 
[ show covariance matrix ]

Ephemeris | Orbit Diagram | Orbital Elements | Mission Design | Physical Parameters | Discovery Circumstances | Close-Approach Data ]

Physical Parameter Table
Parameter Symbol Value Units Sigma Reference Notes
absolute magnitude H 15.4   n/a MPO493427  

78886 (2003 SC12)          Discovered 2003-Sep-16 by Spacewatch at Kitt Peak
Reference: 20040415/Numbers.arcLast Updated: 2004-04-19

[ show close-approach data ]
Ephemeris | Orbit Diagram | Orbital Elements | Mission Design | Physical Parameters | Discovery Circumstances | Close-Approach Data ]
ABOUT SSD CREDITS/AWARDS PRIVACY/COPYRIGHT GLOSSARY LINKS
FirstGov 2020-Dec-03 05:52 UT
(server date/time)  
NASA Home Page
Site Manager:   Ryan S. Park
Webmaster  Alan B. Chamberlin